Date,TemperatureHighF,TemperatureAvgF,TemperatureLowF,DewpointHighF,DewpointAvgF,DewpointLowF,HumidityHigh,HumidityAvg,HumidityLow,PressureMaxIn,PressureMinIn,WindSpeedMaxMPH,WindSpeedAvgMPH,GustSpeedMaxMPH,PrecipitationSumIn
2013-2-1,20.0,17.2,14.0,16.0,10.8,5.0,88,73,56,0.00,40.00,17,10,22,3.97
2013-2-2,23.0,20.2,16.0,21.0,17.4,12.0,91,85,78,0.00,40.00,9,4,14,17.00
2013-2-3,22.0,19.3,18.0,21.0,15.6,12.0,91,81,69,0.00,40.00,14,8,15,13.03
2013-2-4,27.0,21.7,16.0,23.0,17.1,9.0,90,79,60,0.00,40.00,12,4,15,15.31
2013-2-5,31.0,25.2,21.0,23.0,20.6,18.0,91,81,59,0.00,40.00,5,2,12,3.97
2013-2-6,32.0,25.5,15.0,30.0,18.2,10.0,89,71,47,0.00,40.00,9,3,14,0.00
2013-2-7,45.0,31.4,15.0,30.0,19.2,10.0,82,60,37,0.00,40.00,11,4,15,0.00
2013-2-8,39.0,30.9,22.0,36.0,26.5,16.0,94,83,66,0.00,40.00,17,8,21,14.17
2013-2-9,33.0,24.3,18.0,21.0,18.6,14.0,85,76,54,0.00,40.00,9,3,21,0.00
2013-2-10,48.0,33.7,17.0,25.0,16.8,12.0,85,52,24,0.00,40.00,13,6,17,0.00
2013-2-11,53.0,41.0,34.0,45.0,32.0,23.0,90,71,41,0.00,40.00,25,14,34,5.67
2013-2-12,36.0,32.4,27.0,28.0,25.8,21.0,82,73,68,0.00,40.00,20,10,34,3.97
2013-2-13,36.0,30.6,25.0,28.0,26.0,23.0,88,79,62,0.00,40.00,6,2,26,0.00
2013-2-14,41.0,32.5,24.0,36.0,28.4,21.0,89,83,66,0.00,40.00,19,7,21,0.00
2013-2-15,39.0,32.3,26.0,30.0,24.1,18.0,78,69,55,0.00,40.00,23,8,30,1.14
2013-2-16,29.0,25.2,21.0,23.0,15.1,5.0,89,65,37,0.00,40.00,7,2,24,2.28
2013-2-17,23.0,19.1,15.0,19.0,14.0,9.0,91,78,64,0.00,40.00,9,3,14,3.42
2013-2-18,43.0,25.5,8.0,28.0,13.9,3.0,80,61,42,0.00,40.00,13,7,19,0.00
2013-2-19,48.0,33.7,20.0,37.0,28.1,16.0,90,80,51,0.00,40.00,20,13,24,15.86
2013-2-20,24.0,20.3,17.0,19.0,15.1,10.0,89,77,63,0.00,40.00,17,9,24,9.64
2013-2-21,24.0,21.3,19.0,19.0,15.7,14.0,80,75,69,0.00,40.00,7,4,19,5.66
2013-2-22,38.0,29.7,17.0,34.0,24.8,12.0,89,81,64,0.00,40.00,14,7,17,0.00
2013-2-23,39.0,34.5,30.0,34.0,28.1,23.0,89,76,54,0.00,40.00,12,4,17,0.00
2013-2-24,33.0,29.8,27.0,27.0,24.1,21.0,84,76,69,0.00,40.00,12,6,17,5.67
2013-2-25,40.0,30.3,21.0,32.0,23.3,19.0,93,74,47,0.00,40.00,7,3,17,0.00
2013-2-26,42.0,34.4,28.0,34.0,25.3,21.0,89,68,51,0.00,40.00,12,7,21,2.83
2013-2-27,44.0,38.8,34.0,41.0,34.4,32.0,93,87,76,0.00,40.00,10,4,14,5.67
2013-2-28,37.0,34.4,32.0,34.0,31.4,28.0,93,88,81,0.00,40.00,8,4,14,12.47